Rbgn^[z[y[W
メイン
   新天体発見情報
     Comet C/2021 P4 (ATLAS)
投稿するにはまず登録を

スレッド表示 | 古いものから 前のトピック | 次のトピック | 下へ
投稿者 スレッド
佐藤裕久
投稿日時: 2021-8-25 20:33
モデレータ
登録日: 2005-6-12
居住地: 日本
投稿: 2548
オンライン
Comet C/2021 P4 (ATLAS)

8月10日UT、ハワイ Haleakalaにある小惑星地球衝突最終警報システム Asteroid Terrestrial-
impact Last Alert System (ATLAS)調査プログラムのコースに0.5-m f/2 Schmidt反射望遠鏡
で得たCCD画像から彗星が発見された。
小惑星センターのPCCP webpageに投稿が続き、L. Buzzi (Varese, イタリア: 測定はA. Aletti
と彼, 8月15.0日UT、60秒露出30枚のスタック, 0.84-m f/3.5 反射望遠鏡, 良い条件で、全光度
19.4等の非常に集光した5" 幅のコマが見え、p.a.235°に向かってわずかに伸びている)が書き
込んだ。

彗星機能の報告は次のとおり、

OC   Date        Reporter           Coma    Tail    PA          Exposures
G40  2021-08-14  N. Paul            13"                           21x50s
204  2021-08-14  A. Aletti           5"
F65  2021-08-17  J. D. Armstrong     4"     10"     230         
K78  2021-08-18  L. Sannino          3"                           70x30s

発見位置は次のとおり、

     2021 UT             R.A. (2000) Decl.       Mag.
     Aug. 10.53716    1 06 54.69   +55 52 13.6   19.4
          10.53899    1 06 54.55   +55 52 16.7   19.2
          10.54174    1 06 54.48   +55 52 18.5   19.2
          10.55110    1 06 54.31   +55 52 25.0   19.3
          10.56350    1 06 54.06   +55 52 33.3   19.3

MPCの楕円軌道要素、位置推算表は次のとおり、

Orbital elements:
    C/2021 P4 (ATLAS)                                                           
Epoch 2022 Aug. 9.0 TT = JDT 2459800.5                                          
T 2022 July 31.62094 TT                                 Rudenko                 
q   1.0874934            (2000.0)            P               Q                  
z  +0.0051826      Peri.  175.74090     -0.96734010     -0.18666163             
 +/-0.0014418      Node   348.10625     +0.20096606     -0.15242797             
e   0.9943640      Incl.   56.31578     +0.15448554     -0.97052725             
From 150 observations 2021 Aug. 10-21, mean residual 0".4.                      
                                                                                
    C/2021 P4 (ATLAS)                                                           
Epoch 2021 July 5.0 TT = JDT 2459400.5                                          
T 2022 July 31.66259 TT                                 Rudenko                 
q   1.0874512            (2000.0)            P               Q                  
z  +0.0054056      Peri.  175.75209     -0.96738146     -0.18646048             
 +/-0.0014418      Node   348.10736     +0.20091825     -0.15245951             
e   0.9941216      Incl.   56.31644     +0.15428862     -0.97056097             
From 150 observations 2021 Aug. 10-21, mean residual 0".4.                      
                                                                                
Ephemeris:
Date    TT    R. A. (2000) Decl.     Delta      r    Elong.  Phase   m1
2021 07 22    01 09 00.4 +52 06 34   4.8738  4.8428    82.3    12.0  19.8
...
2021 08 06    01 08 11.7 +54 59 57   4.5571  4.6971    91.7    12.5  19.5
...
2021 08 14    01 05 33.0 +56 31 46   4.3920  4.6188    96.6    12.6  19.4
...
2021 08 20    01 02 20.8 +57 39 00   4.2711  4.5597   100.2    12.6  19.2
2021 08 21    01 01 42.2 +57 50 00   4.2513  4.5499   100.8    12.6  19.2
2021 08 22    01 01 01.6 +58 00 56   4.2315  4.5400   101.3    12.6  19.2
...
2021 08 28    00 56 14.8 +59 04 45   4.1151  4.4806   104.8    12.6  19.1
...
2021 09 05    00 47 50.6 +60 23 30   3.9664  4.4009   109.1    12.5  18.9
...
2021 09 20    00 25 35.3 +62 20 27   3.7119  4.2502   116.1    12.3  18.6

(MPEC 2021-Q42、CBET 5024)

スレッド表示 | 古いものから 前のトピック | 次のトピック | トップ

投稿するにはまず登録を
 
© 1999 Tsutomu Seki.